MB7UEL Weather Reports


time (UTC)temp
F
wind
direction
speed
knots
gust
knots
rain 1hr
in
rain 24hr
in
rain mn
in
humidity
%
barometer
mb
20260507230505 50 196 11.3 13.9 0.00 0.00 0.00 1014.0
20260507223506 50 198 10.4 13.0 0.00 0.00 0.00 1014.0
20260507220506 50 198 10.4 13.0 0.00 0.00 0.00 1014.0
20260507213506 51 199 10.4 13.0 0.00 0.00 0.00 1014.0
20260507210506 51 199 10.4 13.0 0.00 0.00 0.00 1014.0
20260507203506 52 200 10.4 13.0 0.00 0.00 0.00 1014.0
20260507200506 52 200 10.4 13.0 0.00 0.00 0.00 1014.0
20260507193506 53 204 11.3 13.0 0.00 0.00 0.00 1014.0
20260507190506 53 204 11.3 13.0 0.00 0.00 0.00 1013.0
20260507183506 53 201 11.3 13.0 0.00 0.00 0.00 1013.0
20260507180506 53 201 11.3 13.0 0.00 0.00 0.00 1013.0
20260507173505 54 214 11.3 13.0 0.00 0.00 0.00 1013.0
20260507170506 54 214 11.3 13.0 0.00 0.00 0.00 1013.0
20260507163505 53 210 7.8 9.6 0.00 0.00 0.00 1013.0
20260507160505 53 210 7.8 9.6 0.00 0.00 0.00 1013.0
20260507153505 53 210 8.7 10.4 0.00 0.00 0.00 1014.0
20260507150505 53 210 8.7 10.4 0.00 0.00 0.00 1013.0
20260507143505 53 206 8.7 10.4 0.00 0.00 0.00 1014.0
20260507140505 53 206 8.7 10.4 0.00 0.00 0.00 1014.0
20260507133505 52 202 7.8 9.6 0.00 0.00 0.00 1014.0
20260507130505 52 202 7.8 9.6 0.00 0.00 0.00 1014.0
20260507123506 52 198 7.8 9.6 0.00 0.00 0.00 1015.0
20260507120506 52 198 7.8 9.6 0.00 0.00 0.00 1014.0
20260507113506 51 186 7.0 7.8 0.00 0.00 0.00 1014.0
20260507110506 51 186 7.0 7.8 0.00 0.00 0.00 1014.0
20260507103506 50 150 4.3 5.2 0.00 0.00 0.00 1015.0
20260507100506 50 150 4.3 5.2 0.00 0.00 0.00 1014.0
20260507093506 49 156 3.5 5.2 0.00 0.00 0.00 1015.0
20260507090506 49 156 3.5 5.2 0.00 0.00 0.00 1015.0
20260507083505 48 152 2.6 5.2 0.00 0.00 0.00 1015.0
20260507080506 48 152 2.6 5.2 0.00 0.00 0.00 1015.0
20260507073505 47 194 5.2 7.0 0.00 0.00 0.00 1015.0
20260507070505 47 194 5.2 7.0 0.00 0.00 0.00 1015.0
20260507063505 46 197 6.1 8.7 0.00 0.00 0.00 1015.0
20260507060505 45 194 2.6 5.2 0.00 0.00 0.00 1015.0
20260507053506 45 183 4.3 7.0 0.00 0.00 0.00 1015.0
20260507050505 45 183 4.3 7.0 0.00 0.00 0.00 1015.0
20260507043506 45 181 6.1 8.7 0.00 0.00 0.00 1015.0
20260507040506 45 181 6.1 8.7 0.00 0.00 0.00 1015.0
20260507033506 44 174 7.8 11.3 0.00 0.00 0.00 1015.0
20260507030506 44 174 7.8 11.3 0.00 0.00 0.00 1015.0
20260507023506 44 170 8.7 12.2 0.00 0.00 0.00 1016.0
20260507020506 44 170 8.7 12.2 0.00 0.00 0.00 1016.0
20260507013506 45 165 9.6 13.0 0.00 0.00 0.00 1016.0
20260507010506 45 165 9.6 13.0 0.00 0.00 0.00 1016.0
20260507003506 45 161 9.6 13.9 0.00 0.00 0.00 1016.0
20260507000506 45 163 10.4 13.9 0.00 0.00 0.00 1016.0
20260506233505 45 159 11.3 15.6 0.00 0.00 0.00 1016.0